sat.trackr.live / text

‹ back to catalog

SES-18

NORAD 55970 · 2023-038A

PAYLOAD ACTIVE UNKNOWN

§ Identity

Operator
Country
SES
Launch date
2023-03-17
Launch site
AFETR
Launch vehicle
Mass (kg)
RCS (m²)

Purposes: comms

External: N2YO · Heavens-Above · Gunter

§ Orbital elements

Epoch: 2026-09-20T03:57:42.357312Z

Period
1,436.09 min
Inclination
0.0376°
Eccentricity
0.0002326
Mean motion
1.00272276 rev/d
Perigee alt
35,776.6 km
Apogee alt
35,796.3 km
Semi-major
42,164.6 km
B*
0.0000e+0
RAAN
273.5741°
Arg perigee
311.8293°
Mean anomaly
89.9937°
Rev number
1,305

§ Raw data

SES-181 55970U 23038A   26263.16507358 -.00000105  00000+0  00000+0 0  99912 55970   0.0376 273.5741 0002326 311.8293  89.9937  1.00272276 13054

JSON: /api/v1/satellites/55970 · /tle

For live sub-satellite position, see the globe view (requires WebGL).

§ Visibility from observer

Set your observer location to see the next 7 days of passes ≥ 10°. The values pass through the URL so the page stays shareable.

No JS? Fill the form by hand. The geolocation button needs JavaScript.